This demonstration page uses our WeatherBlox Daily Observations layout. Learn more.

Left ArrowRight Arrow

39.01783, -85.05884

Hourly Observations for September 12, 2021

Temp ( °F °C ) Dew Point ( °F °C ) Humidity (%) Winds ( mph kmh ) Pressure ( in mb ) Visibility ( mi km ) Precip ( " mm )
12:52 am 00:52 Mostly Clear 70 21.1 60 15.6 71 71 SSW 12 19 30.08 1019 10 16 0.00 0.00
1:52 am 01:52 Clear 70 21.1 60 15.6 71 71 SSW 12 19 30.09 1019 10 16 0.00 0.00
2:52 am 02:52 Clear 70 21.1 60 15.6 71 71 SW 9 15 30.11 1020 10 16 0.00 0.00
3:52 am 03:52 Clear 68 20 60 15.6 76 76 SW 6 9 30.12 1020 10 16 0.00 0.00
4:52 am 04:52 Partly Cloudy 66 18.9 60 15.6 81 81 S 7 11 30.13 1020 10 16 0.00 0.00
5:52 am 05:52 Partly Cloudy 65 18.3 60 15.6 84 84 SSW 7 11 30.14 1021 10 16 0.00 0.00
6:52 am 06:52 Mostly Clear 66 18.9 60 15.6 81 81 SSW 10 17 30.14 1021 10 16 0.00 0.00
7:52 am 07:52 Mostly Sunny 67 19.4 60 15.6 79 79 SSW 9 15 30.15 1021 10 16 0.00 0.00
8:52 am 08:52 Sunny 69 20.6 61 16.1 76 76 SW 10 17 30.15 1021 10 16 0.00 0.00
9:52 am 09:52 Mostly Sunny 72 22.2 61 16.1 68 68 SW 10 17 30.16 1021 10 16 0.00 0.00
10:52 am 10:52 Mostly Sunny 76 24.4 62 16.7 62 62 SW 13 20 30.16 1021 10 16 0.00 0.00
11:52 am 11:52 Mostly Sunny 79 26.1 60 15.6 52 52 SW 10 17 30.15 1021 10 16 0.00 0.00
12:52 pm 12:52 Sunny 81 27.2 59 15 47 47 SW 10 17 30.13 1020 10 16 0.00 0.00
1:52 pm 13:52 Sunny 83 28.3 62 16.7 49 49 SSW 13 20 30.13 1020 10 16 0.00 0.00
2:52 pm 14:52 Sunny 84 28.9 61 16.1 46 46 SSW 13 20 30.11 1020 10 16 0.00 0.00
3:52 pm 15:52 Mostly Sunny 84 28.9 60 15.6 44 44 SSW 16 26 30.09 1019 10 16 0.00 0.00
4:52 pm 16:52 Sunny 84 28.9 62 16.7 48 48 SSW 13 20 30.09 1019 10 16 0.00 0.00
5:52 pm 17:52 Sunny 82 27.8 65 18.3 56 56 SSW 13 20 30.08 1019 10 16 0.00 0.00
6:52 pm 18:52 Mostly Sunny 80 26.7 64 17.8 58 58 SSW 10 17 30.08 1019 10 16 0.00 0.00
7:52 pm 19:52 Mostly Clear 78 25.6 64 17.8 62 62 SSW 9 15 30.08 1019 10 16 0.00 0.00
8:52 pm 20:52 Clear 76 24.4 65 18.3 69 69 SSW 12 19 30.09 1019 10 16 0.00 0.00
9:52 pm 21:52 Clear 75 23.9 66 18.9 74 74 SW 12 19 30.11 1020 10 16 0.00 0.00
10:52 pm 22:52 Clear 74 23.3 66 18.9 76 76 SSW 9 15 30.11 1020 10 16 0.00 0.00
11:52 pm 23:52 Clear 74 23.3 66 18.9 76 76 SW 8 13 30.11 1020 10 16 0.00 0.00

Powered by AerisWeather